www.pogodaiklimat.ru

Погода и климат >> Архив погоды >> Россия >> Ростовская область >> Ростов-на-Дону


АРХИВ ПОГОДЫ в Ростове-на-Дону

Время (UTC), дата Ветер
(напр.,м/с)
 
Видим.   Явления Облачность Т
(С)
Тd
(С)
f
(%)
Тe
(С)
Тes
(С)
Комфортность P
(гПа)
Po
(гПа)
Тmin
(С)
Tmax
(С)
R
(мм)
R24
(мм)
S
(см)
12 12.08 н/о 5/5 1000 м
[Cu hum]
+28.4 +9.3 30 1016.7 1007.2
15 12.08 н/о 3/3 1000 м
[Cu hum]
+27.2 +9.4 33 1016.9 1007.4 +29.5
18 12.08 н/о ясно +21.1 +10.9 52 1018.4 1008.7
21 12.08 н/о ясно +19.8 +9.4 51 1019.3 1009.5
00 13.08 н/о ясно +15.2 +9.4 68 1019.6 1009.7
03 13.08 н/о ясно +14.7 +9.1 69 1020.1 1010.2 +13.9
06 13.08 н/о ясно +23.6 +6.7 34 1020.0 1010.3
09 13.08 н/о ясно +26.7 +6.6 28 1019.5 1009.9
12 13.08 н/о ясно +28.6 +6.4 25 1017.7 1008.2
15 13.08 н/о ясно +27.7 +6.2 26 1017.0 1007.5 +29.4
18 13.08 н/о ясно +19.5 +10.6 56 1017.5 1007.7
21 13.08 н/о ясно +19.4 +9.3 52 1017.7 1007.9
00 14.08 н/о ясно +17.3 +10.2 63 1017.1 1007.3
03 14.08 н/о ясно +15.8 +10.5 71 1017.2 1007.3 +15.7
06 14.08 н/о ясно +25.2 +9.3 37 1017.2 1007.6
09 14.08 н/о ясно +29.4 +8.9 28 1015.4 1006.0
12 14.08 н/о ясно +31.3 +8.1 24 1013.7 1004.4
15 14.08 н/о ясно +30.0 +7.4 24 1012.7 1003.3 +31.6
18 14.08 н/о ясно +25.3 +7.2 31 1012.9 1003.4
21 14.08 н/о ясно +22.2 +8.5 41 1012.4 1002.8
00 15.08 н/о ясно +19.3 +8.3 49 1011.8 1002.1
03 15.08 н/о ясно +17.9 +7.1 49 1011.9 1002.1 +17.7
06 15.08 н/о ясно +25.7 +6.7 30 1011.0 1001.5
09 15.08 н/о ясно +32.3 +2.2 15 1009.6 1000.3
12 15.08 н/о 4/0
[Ci fib]
+34.8 +1.4 12 1007.6 998.4
15 15.08 н/о 5/0
[Ci fib]
+32.9 +3.8 16 1007.0 997.8 +35.0
18 15.08 н/о ясно +27.3 +7.8 29 1008.0 998.6
21 15.08 н/о 3/0
[Ac trans]
+23.3 +8.0 37 1008.2 998.7
00 16.08 н/о 8/0
[Ac trans Ci fib]
+21.1 +7.0 40 1008.3 998.7
03 16.08 н/о 10/3 1000 м
[Cb calv Ci fib]
+19.6 +8.8 50 1008.4 998.7 +19.5
06 16.08 н/о 9/4 600 м
[Cb calv Ac trans]
+20.6 +11.2 55 1007.9 998.3 +19.1
09 16.08 н/о в посл. час ливневой дождь 9/6 600 м
[Cb calv Ac trans]
+24.7 +12.3 46 1007.5 998.0
12 16.08 н/о {ливн. осадки} 10/6 600 м
[Cb calv Ac und]
+26.4 +15.1 50 1007.2 997.8
15 16.08 н/о в посл. час ливневой дождь 10/5 600 м
[Cb calv Ac und]
+25.9 +16.9 58 1005.6 996.2 +27.3 0.0
18 16.08 н/о {ливн. осадки} 8/4 600 м
[Cb calv Ac trans]
+22.9 +17.2 70 1006.5 997.0
21 16.08 н/о слаб. ливневой дождь 10/6 600 м
[Cb calv Ac und]
+22.7 +17.4 72 1007.4 997.9
00 17.08 н/о {ливн. осадки} 10/6 600 м
[Cb calv Ac und]
+21.1 +16.5 75 1006.6 997.0
03 17.08 н/о слаб. ливневой дождь 10/8 600 м
[Cb calv Ac und]
+20.1 +18.2 89 1008.9 999.3 +20.1 1
06 17.08 н/о {ливн. осадки} 10/6 600 м
[Cb calv Ac und]
+19.9 +18.2 90 1007.3 997.7 +19.2
09 17.08 н/о ясно +24.4 +18.3 69 1008.4 998.9
12 17.08 н/о 6/6 600 м
[Cb calv]
+27.7 +17.3 53 1008.3 998.9
15 17.08 н/о 5/5 1000 м
[Cu hum]
+26.9 +16.4 53 1008.4 999.0 +29.2 5
18 17.08 н/о ясно +22.2 +18.4 79 1009.3 999.7
21 17.08 н/о ясно +21.1 +19.4 90 1009.6 1000.0
00 18.08 н/о дымка 3/3 1000 м
[Cu hum]
+19.7 +18.7 94 1009.5 999.9
03 18.08 н/о дымка {ливн. осадки} 3/0
[Ci fib]
+19.4 +19.2 99 1009.5 999.9 +19.1 0.0
06 18.08 н/о 9/9 600 м
[Cb calv]
+23.3 +19.5 79 1010.2 1000.7
09 18.08 н/о 9/9 600 м
[Cb calv]
+24.6 +18.3 68 1010.4 1000.9
12 18.08 н/о 9/9 600 м
[Cb calv]
+25.6 +17.9 62 1010.5 1001.0
15 18.08 н/о 8/5 600 м
[Cu hum Ac trans]
+26.4 +18.1 60 1010.8 1001.4 +27.7
18 18.08 н/о 8/8 600 м
[Cu hum]
+23.4 +19.0 76 1011.7 1002.2
21 18.08 н/о {гроза} 8/5 600 м
[Cu hum Ac trans]
+21.3 +18.9 86 1012.9 1003.3
00 19.08 н/о в посл. час ливневой дождь {гроза} 8/8 600 м
[Cb calv]
+20.3 +18.1 87 1013.3 1003.6
03 19.08 н/о 5/3 600 м
[Cu hum Ac trans]
+19.6 +17.7 89 1014.1 1004.4 +19.6 0.0
06 19.08 н/о слаб. ливневой дождь 10/6 1000 м
[Cb calv Ac und]
+21.1 +18.7 86 1015.8 1006.1
09 19.08 н/о {ливн. осадки} 8/0
[Ac trans]
+25.0 +19.5 72 1015.8 1006.3

 

Местоположение метеостанции Ростов-на-Дону (Ростовская область, Россия): широта 47.27 долгота 39.82 высота над уровнем моря 75 м.

В архиве по умолчанию представлена погода в Ростове-на-Дону за последнюю неделю. Архивные данные за месяц целиком и за предыдущие месяцы, начиная с января 2011 года, Вы можете получить, выбрав интересующий диапазон дат из раскрывающегося списка и нажав кнопку "Ввод!".


*Определитесь, кто Вы:
робот инопланетянин человек

Внимание! Время в таблицах - всемирное. Для получения местного времени необходимо прибавить поправку, которая равна 3 ч.

Смотрите также архив погоды в соседних городах и на ближайших метеорологических станциях:

Погода в Аэропорту Платов (Ростовская область, Россия) (26 км)
Погода в Шахтах (Ростовская область, Россия) (59 км)
Погода в Зерноград (Ростовская область, Россия) (60 км)
Погода в Таганроге (Ростовская область, Россия) (70 км)
Погода в Матвеевом Кургане (Ростовская область, Россия) (78 км)
Погода в Семикаракорске (Ростовская область, Россия) (81 км)
Погода в Маргаритово (Ростовская область, Россия) (81 км)
Погода в Кущевской (Краснодарский край, Россия) (84 км)
Погода в Константиновске (Ростовская область, Россия) (102 км)
Погода в Староминская (Краснодарский край, Россия) (102 км)

Пояснения к столбцам:

Ветер - указаны скорость ветра в м/с - средняя за 10 мин, порывы в срок и между сроками (в фигурных скобках) и направление, откуда дует ветер: С - северный, СВ - северо-восточный, В - восточный, ЮВ - юго-восточный, Ю - южный, ЮЗ - юго-западный, З - западный, СЗ - северо-западный.
Видимость - горизонтальная дальность видимости в метрах или километрах. При видимости от 1 до 10 км при отсутствии осадков обычно наблюдается дымка, при ухудшении видимости до 1 км и менее - туман. В сухую погоду видимость может ухудшаться дымом, пылью или мглою.
Явления - указаны атмосферные явления, наблюдавшиеся в срок или в последний час перед сроком; фигурными скобками обозначены явления, наблюдавшиеся между сроками (за 1-3 часа до срока); квадратными скобками обозначены град или гололедные отложения с указанием их диаметра в мм.
Облачность - указаны через наклонную черту общая и нижняя облачность в баллах и высота нижней границы облаков в метрах; квадратными скобками обозначены формы облаков: Ci - перистые, Cs - перисто-слоистые, Cc - перисто-кучевые, Ac - высококучевые, As - высокослоистые, Sc - слоисто-кучевые, Ns - слоисто-дождевые, Cu - кучевые, Cb - кучево-дождевые. Подробнее классификацию облаков см. в Атласе облаков (PDF).
T - Температура воздуха - температура, измеренная на высоте 2 м над землей.
Td - Температура точки росы - температура, при понижении до которой содержащийся в воздухе водяной пар достигнет насыщения.
f - Относительная влажность воздуха - влажноcть воздуха, измеренная на высоте 2 м над землей.
Te - Эффективная температура - температура, которую ощущает одетый по сезону человек в тени. Характеристика душности погоды. При расчете учитывается влияние влажности воздуха и скорости ветра на теплоощущения человека.
Tes - Эффективная температура на солнце - температура, которую ощущает человек, с поправкой на солнечный нагрев. Характеристика знойности погоды. Зависит от высоты солнца над горизонтом, облачности и скорости ветра. Ночью, в пасмурную погоду, а также при ветре 12 м/с и более поправка равна нулю.
P - Атмосферное давление - приведенное к уровню моря атмосферное давление.
Po - Атмосферное давление - измеренное на уровне метеостанции атмосферное давление.
Tmin - Минимальная температура - минимум температуры воздуха на высоте 2 м над землей.
Tmax - Максимальная температура - максимум температуры воздуха на высоте 2 м над землей.
R - Количество осадков - Количество выпавших осадков за период времени, мм. При наведении курсора мыши на число - период времени, за который выпало указанное количество осадков.
R24 - Количество осадков - Количество выпавших осадков за 24 часа, мм.
S - Снежный покров - Высота снежного покрова, см. При наведении курсора мыши на число - состояние снежного покрова и степень покрытия местности в баллах.